SCP
1 2 2 1 1 0 0 0 0 0 0 0 0 0 0 0 0 0 0 0 0 0 0 0 0 0 0 0 0 0 0 0 0 0 0 0 0 0 0 0 0 0 0 0 0 0 0 0 0
1 1 1 1 1 0 0 0 0 0 0 0 0 0 0 0 0 0 0 0 0 0 0 0 0 0 0 0 0 0 0 0 0 0 0 0 0 0 0 0 0 0 0 0 0 0 0 0 0
1 1 1 1 0 0 0 0 0 0 0 0 0 0 0 0 0 0 0 0 0 1 1 1 1 1 0 0 0 0 0 0 0 0 0 0 0 0 0 0 0 0 0 0 0 0 0 0 0
1 1 1 0 0 0 0 0 0 0 0 0 0 0 0 0 0 0 0 0 0 1 1 1 1 1 0 0 0 0 0 0 0 0 0 0 0 0 0 0 0 0 0 0 0 0 0 0 0
1 1 0 0 0 0 0 0 0 0 0 0 0 0 0 0 0 0 0 0 1 1 1 1 1 1 1 0 0 0 0 0 0 0 0 0 0 0 0 0 0 0 0 0 0 0 0 0 0
0 0 0 0 0 0 0 0 0 0 1 1 0 0 0 0 0 0 0 0 1 1 1 1 1 1 1 1 1 0 0 0 0 0 0 0 0 0 0 0 0 0 0 0 0 0 0 0 0
0 0 0 0 0 0 1 1 1 1 1 1 1 1 1 1 1 1 1 1 1 1 1 1 1 1 1 1 1 1 1 1 0 0 1 0 0 0 0 0 0 0 0 0 0 0 0 0 0
0 0 0 0 1 1 1 1 1 1 1 1 1 1 1 1 1 1 1 1 1 1 1 1 1 1 1 1 1 1 1 1 1 1 1 1 1 0 0 0 0 0 0 0 0 0 0 0 0
0 0 0 1 1 1 1 1 1 1 1 1 1 1 1 2 2 1 1 1 1 1 1 1 1 1 1 1 2 2 2 1 1 1 1 1 1 0 0 1 1 1 1 0 0 0 0 0 0
0 0 1 1 1 1 1 1 1 1 1 1 1 1 2 2 2 2 2 1 1 2 2 2 1 1 1 1 2 2 2 2 2 1 1 1 1 0 1 1 1 1 1 1 0 0 0 0 0
1 1 1 1 1 1 1 1 1 1 1 1 1 2 2 2 2 2 2 2 2 2 2 2 2 2 2 2 2 2 2 2 2 2 1 1 1 1 1 1 1 1 1 0 0 0 0 0 0
1 1 1 1 1 1 1 1 1 1 1 1 1 1 1 1 1 1 1 2 2 2 2 2 2 2 2 2 3 2 2 2 2 2 1 1 1 1 1 1 1 1 1 0 0 0 0 0 0
1 1 1 1 1 1 1 1 1 1 1 1 1 1 1 1 1 1 1 1 2 2 2 2 2 2 2 2 2 2 2 2 2 2 2 2 2 2 1 1 1 1 1 0 0 0 0 0 0
1 1 1 1 1 1 1 1 0 0 0 1 1 1 0 0 0 1 1 1 1 1 1 2 2 2 2 2 2 2 2 2 2 2 2 2 2 2 2 1 1 1 1 1 0 0 0 0 0
1 1 1 1 1 1 1 0 0 0 0 0 0 1 1 0 0 0 0 1 1 1 1 1 1 1 2 2 2 2 2 2 2 2 2 2 2 2 2 2 2 1 1 1 1 0 0 0 0
1 1 1 1 1 1 1 0 0 0 0 0 0 1 1 0 0 0 0 0 0 1 1 1 1 1 2 2 2 2 2 2 2 2 2 2 2 2 3 2 2 2 1 1 1 1 0 0 0
1 1 1 1 1 1 1 0 0 0 0 0 0 0 0 0 0 0 0 0 0 0 0 1 1 1 1 2 2 2 2 2 2 2 2 2 2 2 2 2 2 2 2 2 1 1 1 1 1
0 0 0 0 1 1 1 0 0 0 0 0 0 0 0 0 0 0 0 0 0 0 0 0 1 1 1 1 2 2 2 2 3 2 2 2 2 2 2 2 2 2 2 2 1 1 1 1 1
0 0 0 0 1 1 1 0 0 0 0 0 0 0 0 0 0 0 0 0 0 0 1 1 1 1 1 1 2 2 2 2 2 2 2 2 2 2 2 2 3 2 2 2 2 1 1 1 1
0 0 0 0 0 0 0 0 0 0 0 0 0 0 0 0 0 0 0 0 0 1 1 1 1 1 1 1 1 1 1 2 2 2 2 2 2 2 2 3 3 3 2 2 2 2 2 1 1
0 0 0 0 0 0 0 0 0 0 0 0 0 0 0 0 0 0 0 0 0 1 1 1 1 1 1 1 1 1 1 2 2 2 2 3 3 2 3 3 3 3 3 2 2 2 2 1 1
0 0 0 0 0 0 0 0 0 0 0 0 0 0 0 0 0 0 0 0 0 0 1 1 1 1 1 1 1 1 1 1 2 2 2 2 2 3 3 3 3 2 2 2 2 2 2 1 1
0 0 0 0 0 0 0 0 0 0 0 0 0 0 0 0 0 0 0 0 0 0 0 0 0 1 1 1 1 1 1 1 1 1 2 2 2 3 3 3 2 2 2 2 2 2 2 1 1
0 0 0 0 0 0 0 0 0 0 0 0 0 0 0 0 0 0 0 0 0 0 0 0 0 0 0 1 1 1 1 1 1 1 1 2 2 2 2 2 2 2 2 2 2 2 2 1 1
0 0 0 0 0 0 0 0 0 0 0 0 0 0 0 0 0 0 0 0 0 0 0 0 0 0 0 0 1 1 1 1 1 1 1 2 2 2 2 2 2 2 2 2 2 2 2 1 1
0 0 0 0 0 0 0 0 0 0 0 0 0 0 0 0 0 0 0 0 0 0 0 0 0 0 0 0 0 0 1 1 1 1 1 2 2 2 2 2 2 2 1 2 2 2 2 2 2
0 0 0 0 0 0 0 0 0 0 0 0 0 0 0 0 0 0 0 0 0 0 0 0 0 0 0 0 0 0 0 1 1 1 2 2 2 2 2 2 2 1 2 2 2 2 2 2 2
0 0 0 0 0 0 0 0 0 0 0 0 0 0 0 0 0 0 0 0 0 0 0 0 0 0 0 0 0 0 0 0 1 1 1 2 2 2 1 1 1 1 2 2 2 2 2 2 2
0 0 0 0 0 0 0 0 0 0 0 0 0 0 0 0 0 0 0 0 0 0 0 0 0 0 0 0 0 0 0 0 0 1 1 1 1 1 1 1 1 1 1 2 2 2 2 2 2
0 0 0 0 0 0 0 0 0 0 0 0 0 0 0 0 0 0 0 0 0 0 0 0 0 0 0 0 0 0 0 0 0 0 0 0 0 1 1 1 1 1 1 1 2 2 2 2 2
Wind_Speed
8 9 7 3 3 1 10 10 11 9 9 10 9 9 14 14 10 9 4 10 17 16 14 12 12 11 11 10 9 9 8 8 7 6 6 5 4 4 3 4 4 4 4 4 4 4 5 5 5
9 8 5 3 1 7 9 8 10 11 10 8 10 14 16 15 14 10 6 12 16 15 13 12 12 11 10 10 9 8 8 8 7 6 6 5 5 4 4 4 4 4 4 4 4 4 4 4 4
12 8 4 3 6 9 8 8 8 11 11 10 13 15 11 9 12 9 10 13 14 13 12 13 12 11 10 9 9 8 8 7 7 6 6 5 5 4 4 3 3 4 4 4 4 4 4 4 4
7 4 3 1 11 10 8 9 9 11 13 14 13 12 12 11 11 12 12 13 13 13 13 13 11 11 10 9 8 8 7 7 6 6 5 5 4 4 3 3 3 3 4 4 4 3 3 3 3
5 2 1 5 10 10 9 11 12 11 14 16 17 16 14 13 13 12 10 12 12 13 14 13 12 10 9 9 8 8 7 7 6 6 5 5 4 4 4 3 3 3 3 4 3 3 3 2 2
3 1 2 4 8 9 10 12 13 12 14 14 14 15 12 11 10 8 8 7 10 13 14 13 13 11 10 10 9 8 8 7 7 6 6 5 5 4 4 4 4 3 3 3 3 2 2 2 1
4 0 2 4 7 7 9 11 13 12 15 15 11 12 11 10 6 5 5 5 7 10 12 12 12 11 11 11 11 10 9 8 8 7 7 6 6 6 6 5 5 4 4 3 3 2 2 2 2
3 2 3 3 6 6 9 13 13 14 14 15 13 10 7 6 5 6 6 6 5 5 7 10 11 12 11 11 13 13 11 10 9 8 8 8 7 7 8 8 7 6 5 4 4 3 3 3 4
4 3 2 2 4 5 9 11 11 13 15 16 16 13 9 8 9 8 7 7 7 6 4 3 2 4 7 10 12 13 12 11 10 8 10 8 6 7 8 10 10 9 7 6 6 5 5 5 6
0 3 2 6 8 9 13 12 7 11 14 13 13 13 11 10 10 10 10 9 9 9 8 7 5 3 0 3 6 7 7 7 7 6 8 7 7 6 8 11 13 12 9 8 8 8 8 7 5
5 4 6 8 9 10 10 12 14 9 10 10 11 11 12 12 12 10 9 8 8 8 8 8 8 7 5 1 2 3 3 4 6 7 7 7 6 4 4 5 7 7 8 6 7 7 6 7 6
6 9 9 9 9 10 10 9 11 13 8 7 8 9 10 10 9 9 8 8 7 8 8 8 8 7 7 5 2 1 2 3 3 5 7 6 3 3 3 4 7 6 5 6 6 6 9 9 8
9 8 10 12 14 15 15 13 11 10 7 6 7 8 9 9 8 7 7 7 6 5 5 6 6 6 5 5 3 3 1 1 3 3 4 5 4 4 3 3 4 5 5 6 4 6 7 6 5
8 9 9 10 10 10 13 11 8 7 5 6 6 7 8 7 7 7 8 8 7 6 5 4 5 4 4 3 3 3 3 2 2 2 3 4 3 4 3 3 3 3 3 5 5 6 4 3 2
8 9 8 6 8 10 8 10 8 5 4 6 6 6 6 6 6 7 8 7 7 7 6 4 4 3 4 4 4 3 2 2 2 2 3 4 3 4 4 3 3 3 3 4 4 5 4 3 3
8 9 5 2 2 3 2 7 7 4 4 5 5 5 4 5 8 8 9 8 8 7 6 5 5 5 4 4 4 3 3 3 3 3 3 4 4 4 3 3 2 2 2 2 2 2 2 2 2
5 3 3 3 0 1 5 7 6 4 5 6 6 6 6 7 10 10 10 10 9 8 7 6 5 5 4 4 4 4 3 3 3 3 3 4 5 5 3 3 3 2 2 1 2 2 2 2 2
4 6 4 5 4 4 6 6 5 4 5 7 7 8 8 10 11 11 11 10 9 9 9 7 6 5 4 4 3 3 4 3 3 3 4 5 4 5 4 3 4 4 2 2 1 1 1 1 1
10 10 8 6 5 3 3 5 5 5 5 8 9 10 11 12 12 11 11 11 11 10 10 9 8 6 4 2 3 3 4 3 3 3 4 4 4 4 4 4 4 4 4 4 3 2 2 2 1
10 10 7 5 5 2 1 4 6 5 5 6 9 10 11 12 12 12 12 11 11 11 10 10 8 8 7 3 3 3 4 4 4 3 4 5 5 4 4 4 4 4 4 5 4 3 2 2 2
10 8 8 7 2 4 4 5 8 6 5 7 8 10 11 12 12 12 12 11 11 11 11 10 9 8 7 6 4 4 3 3 3 3 4 4 4 5 5 5 5 5 5 5 6 5 5 3 2
8 7 7 7 7 5 6 2 8 6 6 8 9 10 10 10 11 11 11 12 12 12 11 11 10 9 8 7 5 5 4 4 4 4 4 4 4 5 5 5 6 5 5 6 6 6 5 5 4
7 6 7 8 8 9 6 3 7 5 7 9 9 10 10 11 11 11 11 11 11 11 10 10 10 9 8 7 5 5 4 4 4 4 4 4 3 4 4 5 5 6 5 6 6 6 6 5 5
6 9 10 9 7 6 2 2 6 5 8 9 9 10 10 10 10 10 10 10 9 10 9 9 9 8 8 7 6 5 5 5 5 5 4 3 2 2 2 3 4 4 4 6 6 7 7 6 7
6 8 5 5 5 1 3 2 7 7 7 7 8 8 9 8 9 10 10 10 9 10 10 9 9 9 9 9 7 6 6 5 4 4 4 3 2 2 2 2 2 3 4 4 5 6 6 7 7
7 6 6 6 5 1 4 4 7 6 5 5 6 7 7 8 8 9 9 8 8 9 9 9 9 9 9 9 8 7 8 5 4 5 4 3 3 2 2 2 1 2 2 2 3 3 4 5 6
8 7 6 6 9 6 4 8 8 5 4 5 7 7 8 8 8 8 8 7 7 8 8 8 9 9 9 9 8 8 8 7 7 7 6 4 4 3 3 2 2 1 1 1 1 1 2 3 4
2 5 5 5 6 6 2 4 4 4 5 6 6 6 7 7 8 7 6 7 7 6 7 7 8 8 8 8 8 7 7 7 7 6 7 7 7 6 6 5 4 3 3 2 2 1 1 1 2
5 4 4 5 2 4 4 4 6 5 4 5 5 5 5 6 6 6 5 5 5 6 6 7 7 8 7 7 7 7 7 7 7 7 8 7 7 7 7 6 6 5 5 4 3 2 1 1 2
2 5 6 5 5 2 2 4 5 4 3 3 4 5 4 4 4 4 5 5 5 6 6 6 6 6 6 6 6 6 7 7 8 8 8 8 8 7 7 7 7 7 6 5 4 3 2 2 1
Wind_Direction
220 223 225 249 255 78 59 51 49 36 39 44 43 64 71 58 56 86 155 133 119 119 126 131 128 124 121 119 118 119 122 125 126 126 125 126 128 124 111 101 94 88 80 73 67 69 69 69 67
246 218 230 247 296 69 61 55 54 42 41 62 55 56 67 64 78 101 126 113 120 124 137 132 133 130 129 127 126 125 124 125 126 127 128 127 125 122 114 105 100 96 92 87 82 75 75 76 72
255 236 245 243 62 65 61 52 50 52 46 61 77 61 49 52 83 106 118 126 122 125 125 126 139 136 136 135 134 133 133 133 132 131 132 133 132 128 124 116 109 102 99 96 94 90 86 87 83
245 233 255 62 77 70 66 64 52 53 56 60 69 69 60 55 88 113 132 130 121 122 120 132 142 144 146 145 146 147 147 148 149 148 147 143 141 140 138 136 132 120 111 103 99 100 98 96 92
238 260 23 72 76 67 59 64 65 53 52 64 79 83 73 68 88 115 131 127 131 129 129 140 148 152 156 158 161 164 165 166 167 166 164 161 161 161 156 154 148 140 128 114 108 107 110 108 102
274 37 49 89 84 67 54 58 61 54 49 51 81 90 80 73 83 103 114 127 130 132 136 142 156 162 168 172 175 177 179 182 181 178 176 178 180 178 175 169 157 150 137 127 121 123 131 133 140
288 191 135 97 81 65 63 64 62 58 46 36 59 87 83 64 57 82 94 100 117 134 139 151 163 172 179 183 185 186 188 191 191 188 188 189 191 190 188 182 176 169 158 152 150 154 165 178 205
293 327 43 68 93 67 64 63 59 55 50 38 41 66 70 51 52 65 59 60 81 113 142 160 169 175 180 186 192 191 193 196 200 199 198 198 200 202 201 195 188 182 180 180 180 187 197 208 223
270 47 43 44 97 66 58 74 69 63 59 54 53 55 54 44 48 51 46 37 33 33 30 66 148 168 184 183 187 191 195 198 201 205 208 205 210 206 203 209 183 185 192 197 199 204 213 223 227
312 68 66 69 91 88 59 44 41 71 49 40 44 41 38 44 45 43 39 29 23 18 11 18 17 29 54 201 169 185 189 188 201 206 198 205 222 215 202 185 180 187 196 204 209 214 221 230 227
54 74 76 73 92 106 91 60 33 72 50 29 26 29 31 36 39 37 37 30 21 14 14 9 8 3 1 358 155 185 170 179 204 218 202 208 224 208 179 165 174 189 199 207 208 214 224 225 223
74 51 62 65 61 73 76 78 62 55 52 36 37 34 36 37 36 32 29 23 20 15 5 358 359 0 354 350 354 222 179 180 201 216 217 205 212 224 206 186 178 185 194 206 197 208 218 225 223
102 93 85 85 85 87 87 84 79 62 56 47 43 39 34 32 26 27 25 18 18 18 3 352 349 350 348 348 335 320 303 216 212 203 225 204 195 212 225 220 188 189 190 189 206 221 227 222 227
124 129 124 116 107 100 96 84 71 55 48 46 42 38 28 23 18 17 19 7 3 4 354 342 341 339 332 328 325 324 328 318 287 245 240 228 200 205 215 230 214 201 200 181 190 222 242 229 227
139 153 144 137 136 143 125 79 62 45 38 38 28 36 23 13 11 20 13 1 355 349 341 339 322 334 329 318 308 305 289 279 272 253 257 260 223 212 220 222 223 212 215 209 193 222 226 213 209
203 195 153 82 103 182 245 86 67 28 23 35 20 21 16 16 11 19 10 357 351 343 335 331 332 337 328 321 304 286 276 267 256 243 232 244 241 218 212 221 228 237 233 225 189 216 214 221 210
227 268 140 163 115 101 73 88 74 37 12 21 13 8 13 15 13 13 8 356 348 337 332 333 339 329 322 309 291 283 273 257 250 248 237 241 247 238 213 211 209 230 252 240 221 194 202 223 224
320 288 248 161 91 66 86 104 94 55 21 13 8 6 12 12 8 8 2 354 347 342 338 335 331 321 315 309 307 302 285 265 243 238 236 236 240 240 226 208 202 208 216 230 250 202 207 223 232
317 310 311 97 100 54 88 118 103 63 32 20 11 5 11 7 359 5 358 353 347 346 343 334 328 325 319 314 310 304 297 292 277 255 247 240 238 233 223 214 204 205 203 204 216 216 214 224 249
301 300 315 86 94 20 200 152 118 92 62 36 15 7 9 1 357 0 357 354 347 346 342 332 336 334 330 317 302 285 287 283 275 269 258 240 236 233 227 212 205 203 204 205 203 199 202 207 205
318 344 347 336 323 243 239 192 142 129 85 52 27 16 10 1 357 356 354 352 347 347 341 335 335 331 329 327 313 304 298 290 284 277 270 254 239 230 224 215 207 203 198 201 200 194 189 198 208
326 23 334 302 283 253 210 234 135 129 70 42 27 18 8 4 357 358 357 354 352 349 342 339 337 335 333 331 324 319 304 298 296 294 283 273 250 233 220 213 211 209 200 198 203 198 190 186 199
332 328 291 277 268 272 244 251 120 94 38 26 20 15 11 8 0 1 359 353 355 352 348 343 343 342 339 334 328 323 315 306 303 305 301 293 267 245 225 214 211 212 208 201 200 195 195 194 195
287 274 253 241 252 256 251 269 100 57 28 14 13 14 11 7 2 3 357 355 356 355 352 349 350 351 348 342 340 335 327 324 324 321 322 314 301 278 253 226 216 213 207 205 205 201 201 201 201
274 304 287 232 210 131 64 61 82 66 44 21 12 12 10 6 3 360 360 358 356 356 356 356 357 358 358 356 355 353 352 344 336 328 321 327 324 311 294 257 221 215 213 206 199 198 203 204 202
317 313 326 322 334 109 162 90 101 83 72 39 27 19 11 11 5 3 3 358 356 356 359 4 3 2 0 2 3 9 8 1 358 352 350 353 341 327 320 304 258 202 194 201 196 194 204 194 196
325 348 347 301 288 283 122 112 124 109 69 39 27 18 12 11 10 7 5 359 0 0 3 8 8 9 9 9 10 15 14 13 16 10 9 9 1 356 7 18 31 49 110 118 137 171 194 185 192
318 316 304 300 336 326 96 97 89 66 38 28 24 18 12 11 11 8 6 2 4 1 3 17 22 20 15 14 15 19 17 18 17 19 17 13 10 16 26 34 38 40 55 80 94 110 191 183 184
342 325 336 299 298 327 349 68 68 59 42 25 21 22 19 16 11 5 2 360 3 7 9 20 24 22 18 15 16 21 20 21 21 21 16 14 16 21 27 32 38 43 46 49 56 48 76 136 153
352 359 341 331 346 322 306 100 93 89 72 48 26 16 17 18 13 10 5 7 10 11 15 19 23 23 20 16 17 23 24 24 24 22 18 18 23 23 25 29 36 39 41 45 49 40 44 76 119